Location: Newark
(45.9167°N, 5.5000°E)
Time: 23:37:26
(UTC+00:00)

ISS - Pass Details

Date: 24 January 2020
Orbit: 416 x 422 km, 51.6° (Epoch: 20 February)

Event Time Altitude Azimuth Distance (km) Brightness Sun altitude
Rises 18:56:26 0° 265° (W) 2,373 1.5 -25.1°
Reaches altitude 10° 18:58:37 10° 274° (W) 1,509 0.1 -25.5°
Enters shadow 19:00:33 27° 297° (WNW) 847 -1.7 -25.8°
